Hyannis, MA

8:01 AM EST on December 17, 2017 (GMT -0500)
Barnstable Municipal-Boardman-Polando Field

Weather History for KHYA - February, 2015

Change the Weather History Date:

Thursday, February 12, 2015

  Actual Average Record
Temperature  
Mean Temperature 28 °F -  
Max Temperature 33 °F 37 °F 54 °F (2009)
Min Temperature 23 °F 19 °F -4 °F (1968)
Degree Days  
Heating Degree Days 37    
Moisture  
Dew Point 24 °F    
Average Humidity 82    
Maximum Humidity 96    
Minimum Humidity 58    
Precipitation  
Precipitation 0.02 in - - ()
Sea Level Pressure  
Sea Level Pressure 29.71 in    
Wind  
Wind Speed 8 mph (WNW)    
Max Wind Speed 17 mph    
Max Gust Speed 26 mph    
Visibility 8 miles    
Events Snow    
Averages and records for this station are not official NWS values.
T = Trace of Precipitation, MM = Missing Value Source: NWS Daily Summary

Daily Weather History Graph

Daily Weather History Graph

Search for Another Location

Airport or City:

Trip Planner

Search our weather history database for the weather conditions in past years. The results will help you decide how hot, cold, wet, or windy it might be!

Date:

Astronomy

Feb. 12, 2015 Rise Set
Actual Time 6:40 AM EST 5:10 PM EST
Civil Twilight 6:12 AM EST 5:39 PM EST
Nautical Twilight 5:39 AM EST 6:11 PM EST
Astronomical Twilight 5:07 AM EST 6:44 PM EST
Moon 12:41 AM EST (2/12) 11:03 AM EST (2/12)
Length of Visible Light 11h 27m
Length of Day
10h 29m
Last Quarter, 44% of the Moon is Illuminated
Feb 12
Last Quarter
Feb 18
New
Feb 25
First Quarter
Mar 5
Full
Mar 13
Last Quarter

Hourly Weather History & Observations

Time (EST) Temp. Windchill Dew Point Humidity Pressure Visibility Wind Dir Wind Speed Gust Speed Precip Events Conditions
12:56 AM 28.0 °F 20.0 °F 23.0 °F 81% 29.85 in 10.0 mi North 8.1 mph - N/A   Overcast
1:56 AM 27.0 °F 17.3 °F 21.9 °F 81% 29.86 in 10.0 mi WNW 10.4 mph - N/A   Overcast
2:56 AM 24.1 °F 14.4 °F 18.0 °F 77% 29.84 in 10.0 mi NW 9.2 mph - N/A   Overcast
3:56 AM 23.0 °F 14.7 °F 17.1 °F 78% 29.83 in 10.0 mi NW 6.9 mph - N/A   Overcast
4:56 AM 24.1 °F 14.4 °F 18.0 °F 77% 29.82 in 10.0 mi NNW 9.2 mph - N/A   Overcast
5:56 AM 24.1 °F 17.0 °F 17.1 °F 75% 29.84 in 10.0 mi NW 5.8 mph - N/A   Overcast
6:56 AM 24.1 °F 19.7 °F 18.0 °F 77% 29.83 in 10.0 mi NW 3.5 mph - N/A   Overcast
7:56 AM 25.0 °F - 18.0 °F 75% 29.83 in 10.0 mi Calm Calm - N/A   Mostly Cloudy
8:56 AM 27.0 °F - 19.0 °F 72% 29.82 in 10.0 mi Calm Calm - N/A   Overcast
9:56 AM 28.0 °F 21.7 °F 19.0 °F 69% 29.81 in 10.0 mi West 5.8 mph - N/A   Overcast
10:56 AM 28.0 °F 20.0 °F 17.1 °F 63% 29.80 in 10.0 mi SW 8.1 mph - N/A   Overcast
11:56 AM 28.0 °F 21.7 °F 15.1 °F 58% 29.76 in 10.0 mi SSW 5.8 mph - N/A   Overcast
12:56 PM 28.9 °F 20.4 °F 18.0 °F 64% 29.73 in 10.0 mi SSW 9.2 mph - N/A   Overcast
12:58 PM 28.9 °F 20.4 °F 18.0 °F 64% 29.73 in 10.0 mi South 9.2 mph - N/A   Overcast
1:56 PM 30.0 °F 21.7 °F 23.0 °F 75% 29.71 in 10.0 mi SSW 9.2 mph - N/A   Overcast
2:56 PM 30.9 °F 22.2 °F 25.0 °F 79% 29.70 in 10.0 mi SSW 10.4 mph - N/A   Overcast
3:56 PM 32.0 °F 24.8 °F 27.0 °F 82% 29.68 in 10.0 mi SSW 8.1 mph - N/A   Overcast
4:14 PM 32.0 °F 25.6 °F 28.0 °F 85% 29.67 in 9.0 mi South 6.9 mph - N/A   Overcast
4:51 PM 32.0 °F 27.5 °F 28.4 °F 87% 29.66 in 2.5 mi South 4.6 mph - 0.00 in Snow Light Snow
4:56 PM 32.0 °F 26.4 °F 30.0 °F 92% 29.67 in 2.5 mi South 5.8 mph - 0.00 in Snow Light Snow
5:37 PM 32.0 °F 27.5 °F 30.9 °F 96% 29.66 in 2.0 mi SSW 4.6 mph - 0.00 in Snow Light Snow
5:56 PM 33.1 °F 27.7 °F 30.9 °F 92% 29.67 in 1.5 mi SSW 5.8 mph - 0.01 in Snow Light Snow
6:38 PM 32.0 °F 27.5 °F 30.9 °F 96% 29.65 in 2.5 mi West 4.6 mph - 0.01 in Snow Light Snow
6:49 PM 32.0 °F 26.4 °F 30.9 °F 96% 29.65 in 3.0 mi West 5.8 mph - 0.01 in Snow Light Snow
6:56 PM 32.0 °F 26.4 °F 30.9 °F 96% 29.66 in 4.0 mi West 5.8 mph - 0.01 in Snow Light Snow
7:03 PM 32.0 °F 25.6 °F 30.9 °F 96% 29.65 in 5.0 mi NW 6.9 mph - 0.00 in Snow Light Snow
7:14 PM 32.0 °F 24.8 °F 30.0 °F 92% 29.65 in 8.0 mi NW 8.1 mph - 0.00 in   Overcast
7:21 PM 32.0 °F 24.2 °F 30.0 °F 92% 29.65 in 9.0 mi WNW 9.2 mph - 0.00 in   Overcast
7:56 PM 30.9 °F 22.2 °F 28.0 °F 89% 29.66 in 10.0 mi NNW 10.4 mph 20.7 mph 0.00 in   Overcast
8:09 PM 30.0 °F 20.0 °F 27.0 °F 88% 29.66 in 10.0 mi NW 12.7 mph - N/A   Overcast
8:43 PM 28.9 °F 17.7 °F 26.1 °F 89% 29.64 in 2.5 mi NNW 15.0 mph 20.7 mph 0.00 in Snow Light Snow
8:56 PM 28.9 °F 18.6 °F 26.1 °F 89% 29.64 in 3.0 mi NNW 12.7 mph - 0.00 in Snow Light Snow
9:07 PM 28.9 °F 18.6 °F 26.1 °F 89% 29.65 in 5.0 mi NNW 12.7 mph 19.6 mph 0.00 in Snow Light Snow
9:52 PM 28.4 °F 17.0 °F 24.8 °F 86% 29.65 in 10.0 mi NNW 15.0 mph 21.9 mph 0.00 in   Overcast
9:56 PM 28.0 °F 19.3 °F 24.1 °F 85% 29.66 in 10.0 mi NNW 9.2 mph 21.9 mph 0.00 in   Overcast
10:28 PM 28.0 °F 18.6 °F 23.0 °F 81% 29.63 in 10.0 mi NNW 10.4 mph 20.7 mph N/A   Overcast
10:56 PM 28.0 °F 18.6 °F 23.0 °F 81% 29.65 in 10.0 mi NW 10.4 mph - N/A   Mostly Cloudy
11:35 PM 28.0 °F 16.1 °F 21.0 °F 75% 29.63 in 10.0 mi NNW 16.1 mph 25.3 mph N/A   Overcast
11:52 PM 26.6 °F 13.8 °F 21.2 °F 80% 29.64 in 2.5 mi NNW 17.3 mph 26.5 mph 0.00 in Snow Light Snow
11:56 PM 26.1 °F 13.6 °F 21.9 °F 84% 29.65 in 3.0 mi NNW 16.1 mph 26.5 mph 0.00 in Snow Light Snow